Torna al catalogo

PEGASUS DEB

AttivoPO
NORAD 39320·DEBRIS·🇺🇸 United States

Lanciato May 19, 1994 da Vandenberg Space Force Base

Loading…

Prossimi Passaggi (prossime 24 ore)

TLE

In scadenzaSource: Space-Track

Epoca: Sep 9, 2026, 00:49 UTC

1 39320U 94029AFF 26252.03425351  .00001734  00000-0  39818-3 0  9998
2 39320  81.7589  13.4550 0280191 115.7054 247.3348 14.33517076739275

Traccia PEGASUS DEB in tempo reale con AllMySat

Download on the App Store